(346070) = 2007 UN89

Discovered at Mount Lemmon on 2007-10-30 by Mt. Lemmon Survey.

Orbit

Orbit type: Main Belt

Note: WebGL enabled browser required.

epoch2024-03-31.0
epoch JD2460400.5
perihelion date2022-12-25.77311
perihelion JD2459939.27311
argument of perihelion (°)174.91795
ascending node (°)226.65727
inclination (°)10.60314
eccentricity0.0644767
perihelion distance (AU)2.7672971
Tisserand w.r.t. Jupiter3.2
ΔV w.r.t. Earth (km/sec)10.9
semimajor axis (AU)2.9580206
mean anomaly (°)89.35455
mean daily motion (°/day)0.19373230
aphelion distance (AU)3.149
period (years)5.09
P-vector [x]0.74698525
P-vector [y]0.60331238
P-vector [z]0.27933352
Q-vector [x]-0.65123366
Q-vector [y]0.74855005
Q-vector [z]0.12476994
absolute magnitude16.39
phase slope0.15
uncertainty0
referenceMPEC 2024-D06
observations used270
oppositions12
arc length (days)6856
first opposition used2005
last opposition used2024
residual rms (arc-secs)0.76
perturbers coarse indicatorM-v
perturbers precise indicator003Ek
first observation date used2005-05-08.0
last observation date used2024-02-14.0
computer nameMPCLINUX
JD of orbit computation2456731.461064
perihelion JD uncertainty (days)2.3279E-04
argument of perihelion uncertainty (°)5.6009E-05
ascending node uncertainty (°)2.6391E-05
inclination uncertainty (°)9.3114E-06
eccentricity uncertainty 1.0685E-07
perihelion distance uncertainty (AU)3.0404E-07
Minimum Orbit Intersection Distances (in AU)
for orbit epoch: 2460400.5, reference: E2024-D06
Mercury2.44444
Venus2.04512
Earth1.77622
Mars1.27778
Jupiter2.20621
Saturn6.23768
Uranus15.4084
Neptune27.0616

Observations

281 total observations over interval: 2005 05 08.33398 – 2024 02 14.370446
These data are available for download (format description).

Date (UT) J2000 RA J2000 Dec Magn Location Ref
2005 05 08.33398 15 38 22.78 -17 35 17.0 18.6 R G96 – Mt. Lemmon Survey MPS 367104
2005 05 08.34075 15 38 22.62 -17 35 15.6 18.7 R G96 – Mt. Lemmon Survey MPS 367104
2005 05 08.34747 15 38 22.23 -17 35 13.5 19.8 R G96 – Mt. Lemmon Survey MPS 367104
2005 05 08.35421 15 38 21.86 -17 35 10.6 19.7 R G96 – Mt. Lemmon Survey MPS 367104
2007 10 11.46837 03 52 33.15 +20 26 09.2 20.1 V 691 – Steward Observatory, Kitt Peak-Spacewatch MPS 229143
2007 10 11.48607 03 52 32.87 +20 26 05.7 20.4 V 691 – Steward Observatory, Kitt Peak-Spacewatch MPS 229143
2007 10 11.50377 03 52 32.51 +20 26 01.6 20.5 V 691 – Steward Observatory, Kitt Peak-Spacewatch MPS 229143
2007 10 17.42064 03 50 26.52 +19 58 29.1 19.9 V G96 – Mt. Lemmon Survey MPS 229143
2007 10 17.42716 03 50 26.34 +19 58 27.5 20.6 V G96 – Mt. Lemmon Survey MPS 229143
2007 10 17.43373 03 50 26.16 +19 58 25.5 20.0 V G96 – Mt. Lemmon Survey MPS 229143
2007 10 17.44032 03 50 25.98 +19 58 23.3 20.5 V G96 – Mt. Lemmon Survey MPS 229143
2007 10 30.30138 03 43 06.96 +18 46 05.0 20.2 V 691 – Steward Observatory, Kitt Peak-Spacewatch MPS 229143
2007 10 30.31902 03 43 06.29 +18 45 59.7 19.5 V 691 – Steward Observatory, Kitt Peak-Spacewatch MPS 229143
2007 10 30.33665 03 43 05.43 +18 45 51.9 20.3 V 691 – Steward Observatory, Kitt Peak-Spacewatch MPS 229143
2007 10 30.36568 03 43 04.18 +18 45 41.2 20.2 V G96 – Mt. Lemmon Survey MPS 225136
2007 10 30.37957 03 43 03.61 +18 45 36.0 20.1 V G96 – Mt. Lemmon Survey MPS 225136
2007 10 30.39343 03 43 03.00 +18 45 30.7 20.1 V G96 – Mt. Lemmon Survey MPS 225136
2007 10 30.40733 03 43 02.38 +18 45 25.6 20.1 V G96 – Mt. Lemmon Survey MPS 225136
2007 11 03.24842 03 40 15.60 +18 21 02.0 20.3 V 691 – Steward Observatory, Kitt Peak-Spacewatch MPS 225136
2007 11 03.26605 03 40 14.74 +18 20 55.1 20.4 V 691 – Steward Observatory, Kitt Peak-Spacewatch MPS 225136
2007 11 03.28380 03 40 13.93 +18 20 48.3 20.3 V 691 – Steward Observatory, Kitt Peak-Spacewatch MPS 225136
2007 11 05.28506 03 38 41.91 +18 07 43.4 20.2   704 – Lincoln Laboratory ETS, New Mexico MPS 225136
2007 11 05.29713 03 38 41.47 +18 07 38.6 20.2   704 – Lincoln Laboratory ETS, New Mexico MPS 225136
2007 11 05.30933 03 38 40.86 +18 07 33.6 20.0   704 – Lincoln Laboratory ETS, New Mexico MPS 225136
2007 11 14.26784 03 31 23.03 +17 06 50.0 20.1   704 – Lincoln Laboratory ETS, New Mexico MPS 227050
2007 11 14.28034 03 31 22.42 +17 06 45.2 20.1   704 – Lincoln Laboratory ETS, New Mexico MPS 227050
2007 11 14.29284 03 31 21.86 +17 06 39.1 21.0   704 – Lincoln Laboratory ETS, New Mexico MPS 227050
2007 11 14.30533 03 31 21.19 +17 06 35.7 19.9   704 – Lincoln Laboratory ETS, New Mexico MPS 227050
2007 12 06.12589 03 14 26.47 +14 45 05.0 20.7 V 691 – Steward Observatory, Kitt Peak-Spacewatch MPS 229920
2007 12 06.14175 03 14 25.84 +14 44 59.6 20.7 V 691 – Steward Observatory, Kitt Peak-Spacewatch MPS 229920
2007 12 06.15761 03 14 25.19 +14 44 54.1 20.4 V 691 – Steward Observatory, Kitt Peak-Spacewatch MPS 229920
2010 05 08.25823 15 03 32.00 -17 00 05.5 20.3 V G96 – Mt. Lemmon Survey MPS 328604
2010 05 08.26708 15 03 31.60 -17 00 02.6 20.4 V G96 – Mt. Lemmon Survey MPS 328604
2010 05 08.27598 15 03 31.14 -16 59 59.2 20.3 V G96 – Mt. Lemmon Survey MPS 328604
2010 05 08.28498 15 03 30.70 -16 59 56.1 20.6 V G96 – Mt. Lemmon Survey MPS 328604
2010 05 17.26040 14 56 32.06 -16 04 50.5 21.1 V 691 – Steward Observatory, Kitt Peak-Spacewatch MPS 328604
2010 05 17.27308 14 56 31.39 -16 04 46.0 20.7 V 691 – Steward Observatory, Kitt Peak-Spacewatch MPS 328604
2010 05 17.28322 14 56 30.97 -16 04 41.9 21.1 V 691 – Steward Observatory, Kitt Peak-Spacewatch MPS 328604
2010 05 21.25687 14 53 34.87 -15 40 51.1 21.7 V 691 – Steward Observatory, Kitt Peak-Spacewatch MPS 328604
2010 05 21.27463 14 53 34.12 -15 40 45.2 21.0 V 691 – Steward Observatory, Kitt Peak-Spacewatch MPS 328604
2010 05 21.29237 14 53 33.29 -15 40 38.9 21.4 V 691 – Steward Observatory, Kitt Peak-Spacewatch MPS 328604
2012 10 15.27086 03 06 50.00 +19 31 20.5 20.6 V 691 – Steward Observatory, Kitt Peak-Spacewatch MPS 435169
2012 10 15.29201 03 06 49.27 +19 31 13.7 20.9 V 691 – Steward Observatory, Kitt Peak-Spacewatch MPS 435169
2012 10 15.31319 03 06 48.47 +19 31 06.3 20.6 V 691 – Steward Observatory, Kitt Peak-Spacewatch MPS 435169
2012 10 19.527794 03 04 11.396 +19 05 54.19 20.4 w F51 – Pan-STARRS 1, Haleakala MPS 437919
2012 10 19.542035 03 04 10.809 +19 05 48.89 20.4 w F51 – Pan-STARRS 1, Haleakala MPS 437919
2012 10 19.556259 03 04 10.224 +19 05 43.51 20.4 w F51 – Pan-STARRS 1, Haleakala MPS 437919
2012 10 20.30782 03 03 40.44 +19 00 59.3 20.4 V 691 – Steward Observatory, Kitt Peak-Spacewatch MPS 437919
2012 10 20.32550 03 03 39.72 +19 00 52.7 20.3 V 691 – Steward Observatory, Kitt Peak-Spacewatch MPS 437919
2012 10 20.34318 03 03 38.99 +19 00 45.8 20.4 V 691 – Steward Observatory, Kitt Peak-Spacewatch MPS 437919
2012 11 04.44119 02 52 13.76 +17 15 06.3 19.5 V G96 – Mt. Lemmon Survey MPS 439535
2012 11 04.44825 02 52 13.40 +17 15 03.4 19.8 V G96 – Mt. Lemmon Survey MPS 439535
2012 11 04.45525 02 52 13.08 +17 15 00.2 19.6 V G96 – Mt. Lemmon Survey MPS 439535
2012 11 04.46234 02 52 12.68 +17 14 56.6 19.4 V G96 – Mt. Lemmon Survey MPS 439535
2012 11 07.27755 02 49 56.53 +16 53 47.5 19.5 V G96 – Mt. Lemmon Survey MPS 439535
2012 11 07.28314 02 49 56.24 +16 53 45.0 19.6 V G96 – Mt. Lemmon Survey MPS 439535
2012 11 07.28867 02 49 55.99 +16 53 42.5 19.3 V G96 – Mt. Lemmon Survey MPS 439535
2012 11 07.29428 02 49 55.74 +16 53 40.1 19.5 V G96 – Mt. Lemmon Survey MPS 439535
2012 11 12.33433 02 45 53.875 +16 15 34.74 20.7 g F51 – Pan-STARRS 1, Haleakala MPS 441754
2012 11 12.34706 02 45 53.238 +16 15 29.14 20.5 g F51 – Pan-STARRS 1, Haleakala MPS 441754
2012 11 14.20782 02 44 25.98 +16 01 28.4 20.0 V G96 – Mt. Lemmon Survey MPS 441754
2012 11 14.21326 02 44 25.72 +16 01 26.0 19.9 V G96 – Mt. Lemmon Survey MPS 441754
2012 11 14.21869 02 44 25.47 +16 01 23.4 19.8 V G96 – Mt. Lemmon Survey MPS 441754
2012 11 14.22414 02 44 25.22 +16 01 21.1 19.9 V G96 – Mt. Lemmon Survey MPS 441754
2012 11 14.35983 02 44 18.63 +16 00 19.9 19.8 V G96 – Mt. Lemmon Survey MPS 441754
2012 11 14.36192 02 44 18.56 +16 00 19.1 19.6 V G96 – Mt. Lemmon Survey MPS 441754
2012 11 14.36403 02 44 18.45 +16 00 18.1 19.7 V G96 – Mt. Lemmon Survey MPS 441754
2012 11 14.36613 02 44 18.31 +16 00 17.3 19.8 V G96 – Mt. Lemmon Survey MPS 441754
2012 11 14.89376 02 43 54.16 +15 56 19.6 20.2 V A13 – Observatoire Naef, Ependes MPS 441754
2012 11 14.91577 02 43 53.08 +15 56 09.9 19.9 V A13 – Observatoire Naef, Ependes MPS 441754
2012 12 07.23511 02 30 30.217 +13 29 53.50 20.7 w F51 – Pan-STARRS 1, Haleakala MPS 447730
2012 12 07.25014 02 30 29.856 +13 29 48.89 20.5 w F51 – Pan-STARRS 1, Haleakala MPS 447730
2012 12 07.26511 02 30 29.487 +13 29 44.19 20.7 w F51 – Pan-STARRS 1, Haleakala MPS 447730
2012 12 07.28018 02 30 29.124 +13 29 39.62 20.7 w F51 – Pan-STARRS 1, Haleakala MPS 447730
2014 01 31.49140 09 26 24.215 -01 23 30.56 20.6 w F51 – Pan-STARRS 1, Haleakala MPS 500935
2014 01 31.50435 09 26 23.574 -01 23 28.54 20.6 w F51 – Pan-STARRS 1, Haleakala MPS 500935
2014 02 20.38430 09 10 38.465 -00 01 03.70 20.4 i F51 – Pan-STARRS 1, Haleakala MPS 502279
2014 02 20.39613 09 10 37.909 -00 00 59.89 20.3 i F51 – Pan-STARRS 1, Haleakala MPS 502279
2014 02 20.40805 09 10 37.367 -00 00 55.95 20.5 i F51 – Pan-STARRS 1, Haleakala MPS 502279
2014 02 20.41998 09 10 36.822 -00 00 52.42 20.3 i F51 – Pan-STARRS 1, Haleakala MPS 502279
2014 02 24.100174 09 07 58.90 +00 19 03.3 21.9 g 309 – Cerro Paranal MPS 804693
2014 02 24.102778 09 07 58.79 +00 19 04.1 22.1 g 309 – Cerro Paranal MPS 804693
2014 02 24.105371 09 07 58.69 +00 19 05.1 22.2 g 309 – Cerro Paranal MPS 804693
2014 02 24.107963 09 07 58.57 +00 19 05.9 22.0 g 309 – Cerro Paranal MPS 804693
2014 02 28.35373 09 05 10.182 +00 42 55.85 20.9 w F51 – Pan-STARRS 1, Haleakala MPS 505326
2014 02 28.36539 09 05 09.725 +00 42 59.76 20.9 w F51 – Pan-STARRS 1, Haleakala MPS 505326
2014 02 28.37804 09 05 09.228 +00 43 04.04 20.8 w F51 – Pan-STARRS 1, Haleakala MPS 505326
2014 02 28.38971 09 05 08.770 +00 43 08.10 20.9 w F51 – Pan-STARRS 1, Haleakala MPS 505326
